ASA3250 PANC-PAFA

Flight info

Callsign ASA3250
Flight time 0h 40m
Altitude 26000
Route CAWIN LIBER5
Aircraft B789/H-SDE1E2E3FGHIJ2J3J4J5M1RWXY/LB1D1

Departure

Time 2026-04-23 02:02
Airport Ted Stevens Anchorage International Airport (PANC)

Arrival

Time 2026-04-23 02:42
Airport Fairbanks International Airport (PAFA)
Time Latitude Longitude Altitude Speed Heading
2026-04-23 01:54 61.17205 -149.98477 122 ft 0 kts 26°
2026-04-23 01:57 61.17176 -149.98505 114 ft 4 kts 23°
2026-04-23 01:58 61.17128 -149.98554 117 ft 4 kts 44°
2026-04-23 01:58 61.17119 -149.98584 118 ft 1 kts 91°
2026-04-23 01:59 61.17118 -149.98504 116 ft 21 kts 91°
2026-04-23 01:59 61.17115 -149.98073 117 ft 32 kts 91°
2026-04-23 01:59 61.17140 -149.97640 118 ft 22 kts 84°
2026-04-23 02:00 61.17151 -149.97333 114 ft 12 kts 103°
2026-04-23 02:00 61.17125 -149.97179 118 ft 12 kts 88°
2026-04-23 02:00 61.17114 -149.96894 115 ft 25 kts 129°
2026-04-23 02:00 61.16944 -149.96866 120 ft 28 kts 208°
2026-04-23 02:01 61.16843 -149.97229 123 ft 32 kts 248°
2026-04-23 02:01 61.16787 -149.97698 119 ft 51 kts 270°
2026-04-23 02:01 61.16787 -149.99083 120 ft 139 kts 270°
2026-04-23 02:01 61.16789 -150.01585 301 ft 200 kts 271°
2026-04-23 02:02 61.16786 -150.04572 1208 ft 216 kts 269°
2026-04-23 02:02 61.16827 -150.07686 1355 ft 218 kts 270°
2026-04-23 02:02 61.16936 -150.10864 1377 ft 225 kts 284°
2026-04-23 02:02 61.20774 -150.13252 1687 ft 227 kts 29°
2026-04-23 02:03 61.27691 -150.09201 4345 ft 286 kts 15°
2026-04-23 02:03 61.35870 -150.05215 7861 ft 310 kts 13°
2026-04-23 02:03 61.44608 -150.00751 10899 ft 338 kts 11°
2026-04-23 02:03 61.54375 -149.95661 13272 ft 385 kts 12°
2026-04-23 02:04 61.65089 -149.90003 16092 ft 404 kts 12°
2026-04-23 02:04 61.75918 -149.84241 19063 ft 412 kts 12°
2026-04-23 02:04 61.87365 -149.78126 21577 ft 424 kts 12°
2026-04-23 02:04 61.98808 -149.71960 23920 ft 435 kts 12°
2026-04-23 02:05 62.10684 -149.65511 25988 ft 441 kts 11°
2026-04-23 02:05 62.22971 -149.58795 26250 ft 472 kts 11°
2026-04-23 02:05 62.35632 -149.51782 25966 ft 458 kts 11°
2026-04-23 02:05 62.47557 -149.45117 25913 ft 429 kts 11°
2026-04-23 02:06 62.59030 -149.38698 26058 ft 426 kts 11°
2026-04-23 02:06 62.70645 -149.32141 26140 ft 438 kts 11°
2026-04-23 02:06 62.82520 -149.25355 26091 ft 440 kts 11°
2026-04-23 02:06 62.94239 -149.18603 26085 ft 430 kts 11°
2026-04-23 02:07 63.02035 -149.14095 26160 ft 428 kts 11°
2026-04-23 02:07 63.13601 -149.07343 26212 ft 427 kts 11°
2026-04-23 02:07 63.16547 -149.05610 26187 ft 420 kts 11°
2026-04-23 02:07 63.17945 -149.04786 26202 ft 413 kts 11°
2026-04-23 02:08 63.19331 -149.03970 25999 ft 413 kts 10°
2026-04-23 02:08 63.20721 -149.03155 25778 ft 411 kts 11°
2026-04-23 02:08 63.22097 -149.02345 25591 ft 408 kts 11°
2026-04-23 02:08 63.23469 -149.01536 25351 ft 407 kts 11°
2026-04-23 02:09 63.24833 -149.00732 25149 ft 404 kts 10°
2026-04-23 02:09 63.26190 -148.99938 24945 ft 402 kts 11°
2026-04-23 02:09 63.27541 -148.99140 24745 ft 401 kts 11°
2026-04-23 02:09 63.28885 -148.98338 24526 ft 400 kts 11°
2026-04-23 02:10 63.30212 -148.97538 24298 ft 400 kts 11°
2026-04-23 02:10 63.31554 -148.96722 24083 ft 399 kts 11°
2026-04-23 02:10 63.32890 -148.95908 23861 ft 398 kts 11°
2026-04-23 02:10 63.34225 -148.95091 23619 ft 397 kts 11°
2026-04-23 02:11 63.35556 -148.94276 23372 ft 396 kts 11°
2026-04-23 02:11 63.36883 -148.93462 23142 ft 394 kts 11°
2026-04-23 02:11 63.38203 -148.92652 22869 ft 393 kts 11°
2026-04-23 02:11 63.39519 -148.91844 22638 ft 391 kts 11°
2026-04-23 02:12 63.40831 -148.91038 22409 ft 390 kts 11°
2026-04-23 02:12 63.42136 -148.90237 22182 ft 388 kts 11°
2026-04-23 02:12 63.43416 -148.89450 21975 ft 386 kts 11°
2026-04-23 02:12 63.44708 -148.88656 21729 ft 385 kts 11°
2026-04-23 02:13 63.46006 -148.87858 21298 ft 389 kts 11°
2026-04-23 02:13 63.47305 -148.87059 21279 ft 382 kts 11°
2026-04-23 02:13 63.48584 -148.86267 20952 ft 382 kts 11°
2026-04-23 02:13 63.49850 -148.85494 20911 ft 373 kts 11°
2026-04-23 02:14 63.51109 -148.84724 20626 ft 374 kts 11°
2026-04-23 02:14 63.52354 -148.83948 20501 ft 370 kts 11°
2026-04-23 02:14 63.53597 -148.83175 20234 ft 370 kts 11°
2026-04-23 02:14 63.54831 -148.82409 20091 ft 367 kts 11°
2026-04-23 02:15 63.57295 -148.80881 19663 ft 366 kts 11°
2026-04-23 02:15 63.58519 -148.80123 19440 ft 365 kts 11°
2026-04-23 02:15 63.59743 -148.79364 19240 ft 364 kts 11°
2026-04-23 02:16 63.60961 -148.78608 19039 ft 363 kts 11°
2026-04-23 02:16 63.62181 -148.77850 18831 ft 362 kts 11°
2026-04-23 02:16 63.63394 -148.77095 18629 ft 361 kts 11°
2026-04-23 02:16 63.64603 -148.76341 18424 ft 361 kts 11°
2026-04-23 02:17 63.65813 -148.75587 18186 ft 360 kts 11°
2026-04-23 02:17 63.67018 -148.74835 17965 ft 359 kts 11°
2026-04-23 02:17 63.68220 -148.74084 17737 ft 358 kts 11°
2026-04-23 02:17 63.69420 -148.73335 17533 ft 357 kts 11°
2026-04-23 02:18 63.70616 -148.72586 17319 ft 357 kts 11°
2026-04-23 02:18 63.71794 -148.71848 17105 ft 356 kts 11°
2026-04-23 02:18 63.72989 -148.71099 16696 ft 359 kts 11°
2026-04-23 02:18 63.74210 -148.70338 16082 ft 370 kts 11°
2026-04-23 02:19 63.75469 -148.69553 15493 ft 380 kts 12°
2026-04-23 02:19 63.76758 -148.68750 14904 ft 389 kts 12°
2026-04-23 02:19 63.78077 -148.67927 14332 ft 397 kts 12°
2026-04-23 02:19 63.79420 -148.67084 13769 ft 404 kts 12°
2026-04-23 02:20 63.80785 -148.66226 13152 ft 409 kts 12°
2026-04-23 02:20 63.82156 -148.65337 12973 ft 405 kts 13°
2026-04-23 02:20 63.83496 -148.64448 12825 ft 398 kts 12°
2026-04-23 02:20 63.84828 -148.63694 12704 ft 390 kts
2026-04-23 02:21 63.86134 -148.62954 12561 ft 384 kts 12°
2026-04-23 02:21 63.87411 -148.62120 12447 ft 379 kts 13°
2026-04-23 02:21 63.88667 -148.61282 12296 ft 374 kts 13°
2026-04-23 02:21 63.89905 -148.60464 12176 ft 368 kts 12°
2026-04-23 02:22 63.91112 -148.59676 12032 ft 363 kts 12°
2026-04-23 02:22 63.92317 -148.58897 11918 ft 358 kts 12°
2026-04-23 02:22 63.93510 -148.58130 11784 ft 354 kts 12°
2026-04-23 02:22 63.94687 -148.57373 11654 ft 349 kts 12°
2026-04-23 02:23 63.95851 -148.56628 11537 ft 345 kts 12°
2026-04-23 02:23 63.96997 -148.55896 11397 ft 341 kts 12°
2026-04-23 02:23 63.98133 -148.55171 11279 ft 337 kts 12°
2026-04-23 02:23 63.99254 -148.54452 11167 ft 333 kts 11°
2026-04-23 02:24 64.00362 -148.53742 11012 ft 330 kts 11°
2026-04-23 02:24 64.01464 -148.53045 10917 ft 328 kts 11°
2026-04-23 02:24 64.02564 -148.52347 10772 ft 328 kts 11°
2026-04-23 02:24 64.03659 -148.51647 10656 ft 325 kts 11°
2026-04-23 02:25 64.04746 -148.50948 10538 ft 324 kts 12°
2026-04-23 02:25 64.05829 -148.50253 10403 ft 322 kts 11°
2026-04-23 02:25 64.06904 -148.49572 10283 ft 320 kts 11°
2026-04-23 02:25 64.07973 -148.48887 10115 ft 318 kts 12°
2026-04-23 02:26 64.09040 -148.48194 9892 ft 319 kts 12°
2026-04-23 02:26 64.10109 -148.47497 9632 ft 320 kts 12°
2026-04-23 02:26 64.11180 -148.46799 9414 ft 320 kts 12°
2026-04-23 02:26 64.12250 -148.46104 9193 ft 320 kts 12°
2026-04-23 02:27 64.13319 -148.45409 9008 ft 318 kts 14°
2026-04-23 02:27 64.14359 -148.44729 8988 ft 311 kts 14°
2026-04-23 02:27 64.15390 -148.44059 8906 ft 306 kts 14°
2026-04-23 02:27 64.16413 -148.43394 8707 ft 306 kts 14°
2026-04-23 02:28 64.17440 -148.42728 8438 ft 308 kts 14°
2026-04-23 02:28 64.18474 -148.42058 8181 ft 310 kts 14°
2026-04-23 02:28 64.19510 -148.41385 8022 ft 308 kts 15°
2026-04-23 02:28 64.21517 -148.40077 7648 ft 306 kts 14°
2026-04-23 02:29 64.25610 -148.37403 6856 ft 305 kts 14°
2026-04-23 02:29 64.29702 -148.34722 6089 ft 303 kts 15°
2026-04-23 02:29 64.33727 -148.32076 5364 ft 299 kts 15°
2026-04-23 02:29 64.37678 -148.29487 4925 ft 285 kts 15°
2026-04-23 02:30 64.41398 -148.27057 4968 ft 274 kts 15°
2026-04-23 02:30 64.45069 -148.24835 4919 ft 275 kts
2026-04-23 02:30 64.48051 -148.24142 4669 ft 280 kts
2026-04-23 02:30 64.49021 -148.23966 4566 ft 278 kts
2026-04-23 02:31 64.49977 -148.23792 4478 ft 274 kts
2026-04-23 02:31 64.51458 -148.23492 4341 ft 269 kts
2026-04-23 02:31 64.53300 -148.23021 4173 ft 263 kts
2026-04-23 02:31 64.55120 -148.22643 3989 ft 262 kts 359°
2026-04-23 02:32 64.56965 -148.23092 3349 ft 276 kts 356°
2026-04-23 02:32 64.58005 -148.23385 2935 ft 284 kts 357°
2026-04-23 02:32 64.59001 -148.23651 2531 ft 291 kts 358°
2026-04-23 02:32 64.60011 -148.23729 2343 ft 285 kts 11°
2026-04-23 02:33 64.60943 -148.23217 2460 ft 267 kts 26°
2026-04-23 02:33 64.61755 -148.22280 2461 ft 255 kts 36°
2026-04-23 02:33 64.62484 -148.21181 2486 ft 245 kts 39°
2026-04-23 02:33 64.63169 -148.20062 2499 ft 236 kts 41°
2026-04-23 02:34 64.63816 -148.18941 2505 ft 227 kts 42°
2026-04-23 02:34 64.64432 -148.17832 2516 ft 220 kts 43°
2026-04-23 02:34 64.65018 -148.16756 2493 ft 214 kts 43°
2026-04-23 02:34 64.65594 -148.15689 2461 ft 208 kts 44°
2026-04-23 02:35 64.66153 -148.14654 2426 ft 201 kts 43°
2026-04-23 02:35 64.66691 -148.13656 2396 ft 193 kts 44°
2026-04-23 02:35 64.68224 -148.10843 2282 ft 169 kts 44°
2026-04-23 02:35 64.69965 -148.07647 2091 ft 149 kts 44°
2026-04-23 02:36 64.71587 -148.04645 2131 ft 152 kts 44°
2026-04-23 02:36 64.72363 -148.03199 2141 ft 155 kts 44°
2026-04-23 02:36 64.72775 -148.02424 2143 ft 149 kts 44°
2026-04-23 02:36 64.73172 -148.01681 2114 ft 143 kts 44°
2026-04-23 02:37 64.73553 -148.00974 2115 ft 138 kts 45°
2026-04-23 02:37 64.73922 -148.00290 2112 ft 133 kts 45°
2026-04-23 02:37 64.74288 -147.99610 2065 ft 136 kts 44°
2026-04-23 02:37 64.74660 -147.98922 2002 ft 135 kts 44°
2026-04-23 02:38 64.75025 -147.98246 1857 ft 136 kts 41°
2026-04-23 02:38 64.75394 -147.97565 1709 ft 136 kts 40°
2026-04-23 02:38 64.75769 -147.96875 1603 ft 137 kts 39°
2026-04-23 02:38 64.76149 -147.96173 1496 ft 142 kts 39°
2026-04-23 02:39 64.76539 -147.95454 1428 ft 142 kts 39°
2026-04-23 02:39 64.76929 -147.94736 1313 ft 142 kts 39°
2026-04-23 02:39 64.77309 -147.94035 1247 ft 137 kts 40°
2026-04-23 02:39 64.77682 -147.93348 1147 ft 133 kts 40°
2026-04-23 02:40 64.78042 -147.92684 1065 ft 131 kts 40°
2026-04-23 02:40 64.78398 -147.92030 991 ft 131 kts 40°
2026-04-23 02:40 64.78765 -147.91359 911 ft 136 kts 40°
2026-04-23 02:40 64.79152 -147.90683 801 ft 138 kts 39°
2026-04-23 02:41 64.79523 -147.89998 689 ft 134 kts 41°
2026-04-23 02:41 64.79879 -147.89341 609 ft 129 kts 41°
2026-04-23 02:41 64.80227 -147.88681 516 ft 127 kts 43°
2026-04-23 02:41 64.80570 -147.88029 447 ft 126 kts 41°
2026-04-23 02:42 64.80903 -147.87407 433 ft 114 kts 37°
2026-04-23 02:42 64.81185 -147.86883 432 ft 93 kts 39°
2026-04-23 02:42 64.81413 -147.86484 431 ft 71 kts 38°
2026-04-23 02:42 64.81574 -147.86189 430 ft 42 kts 29°
2026-04-23 02:43 64.81656 -147.86282 425 ft 29 kts 278°
2026-04-23 02:43 64.81604 -147.86472 430 ft 25 kts 242°
2026-04-23 02:43 64.81610 -147.86581 422 ft 1 kts 306°
2026-04-23 02:43 64.81618 -147.86600 420 ft 6 kts 314°
2026-04-23 02:44 64.81639 -147.86625 432 ft 7 kts 335°
2026-04-23 02:44 64.81662 -147.86644 435 ft 7 kts 341°
2026-04-23 02:44 64.81667 -147.86647 427 ft 0 kts 346°
2026-04-23 02:44 64.81673 -147.86650 430 ft 4 kts 346°
2026-04-23 02:45 64.81681 -147.86657 427 ft 2 kts 342°
2026-04-23 02:45 64.81689 -147.86663 425 ft 3 kts 342°
2026-04-23 02:45 64.81700 -147.86671 423 ft 4 kts 342°
2026-04-23 02:45 64.81710 -147.86677 433 ft 0 kts 343°